Location: Alulod
(14.2076°N, 120.8898°E)
Time: 04:08:31
(UTC+00:00)

USA 238 DEB - Pass Details

Date: 22 March 2026
Orbit: 883 x 1328 km, 63.4° (Epoch: 10 January)

Event Time Altitude Azimuth Distance (km) Brightness Sun altitude
Exits shadow 20:09:08 12° 330° (NNW) 3,106 5.9 -27.3°
Maximum altitude 20:16:39 72° 247° (WSW) 1,376 4.0 -25.5°
Drops below altitude 10° 20:24:52 10° 164° (SSE) 3,342 6.4 -23.5°
Sets 20:27:42 0° 162° (SSE) 4,293 7.0 -22.9°
